| time (UTC) | temp C | wind direction | speed KPH | gust KPH | rain 1hr cm | rain 24hr cm | rain mn cm | humidity % | barometer mb |
| 20260507192428 | 32 | 285 | 1.6 | 6.4 | 0.00 | 0.00 | 0.00 | 17 | 1011.2 |
| 20260507191429 | 31 | 237 | 0.0 | 14.5 | 0.00 | 0.00 | 0.00 | 18 | 1011.2 |
| 20260507185428 | 32 | 236 | 1.6 | 9.7 | 0.00 | 0.00 | 0.00 | 18 | 1011.8 |
| 20260507184428 | 32 | 298 | 1.6 | 9.7 | 0.00 | 0.00 | 0.00 | 18 | 1012.0 |
| 20260507183428 | 30 | 334 | 4.8 | 14.5 | 0.00 | 0.00 | 0.00 | 19 | 1011.9 |
| 20260507180427 | 30 | 329 | 4.8 | 8.0 | 0.00 | 0.00 | 0.00 | 21 | 1012.5 |
| 20260507175429 | 29 | 245 | 4.8 | 9.7 | 0.00 | 0.00 | 0.00 | 22 | 1012.4 |
| 20260507174428 | 29 | 312 | 4.8 | 8.0 | 0.00 | 0.00 | 0.00 | 24 | 1012.4 |
| 20260507173428 | 28 | 309 | 3.2 | 9.7 | 0.00 | 0.00 | 0.00 | 24 | 1012.6 |
| 20260507172429 | 28 | 348 | 3.2 | 9.7 | 0.00 | 0.00 | 0.00 | 25 | 1012.9 |
| 20260507170429 | 27 | 284 | 3.2 | 8.0 | 0.00 | 0.00 | 0.00 | 26 | 1012.9 |
| 20260507165428 | 27 | 316 | 3.2 | 12.9 | 0.00 | 0.00 | 0.00 | 27 | 1012.8 |
| 20260507164428 | 27 | 278 | 0.0 | 12.9 | 0.00 | 0.00 | 0.00 | 27 | 1012.8 |
| 20260507163427 | 26 | 246 | 9.7 | 9.7 | 0.00 | 0.00 | 0.00 | 27 | 1013.0 |
| 20260507162429 | 26 | 160 | 3.2 | 9.7 | 0.00 | 0.00 | 0.00 | 27 | 1013.1 |
| 20260507155427 | 25 | 251 | 0.0 | 8.0 | 0.00 | 0.00 | 0.00 | 28 | 1013.3 |
| 20260507154431 | 24 | 188 | 1.6 | 6.4 | 0.00 | 0.00 | 0.00 | 29 | 1013.3 |
| 20260507153427 | 23 | 254 | 4.8 | 8.0 | 0.00 | 0.00 | 0.00 | 30 | 1013.6 |
| 20260507152428 | 23 | 246 | 1.6 | 6.4 | 0.00 | 0.00 | 0.00 | 29 | 1013.4 |
| 20260507151428 | 23 | 247 | 3.2 | 4.8 | 0.00 | 0.00 | 0.00 | 29 | 1013.9 |
| 20260507150430 | 22 | 261 | 3.2 | 6.4 | 0.00 | 0.00 | 0.00 | 30 | 1013.5 |
| 20260507145427 | 21 | 180 | 3.2 | 6.4 | 0.00 | 0.00 | 0.00 | 30 | 1013.8 |
| 20260507144429 | 20 | 244 | 3.2 | 4.8 | 0.00 | 0.00 | 0.00 | 32 | 1013.6 |
| 20260507142428 | 18 | 254 | 3.2 | 4.8 | 0.00 | 0.00 | 0.00 | 35 | 1013.6 |
| 20260507141429 | 18 | 235 | 3.2 | 6.4 | 0.00 | 0.00 | 0.00 | 36 | 1013.6 |
| 20260507140428 | 17 | 181 | 3.2 | 6.4 | 0.00 | 0.00 | 0.00 | 36 | 1013.5 |
| 20260507135427 | 17 | 190 | 1.6 | 4.8 | 0.00 | 0.00 | 0.00 | 37 | 1013.5 |
| 20260507134430 | 17 | 227 | 3.2 | 6.4 | 0.00 | 0.00 | 0.00 | 38 | 1013.4 |
| 20260507133427 | 17 | 193 | 1.6 | 4.8 | 0.00 | 0.00 | 0.00 | 38 | 1013.4 |
| 20260507132428 | 16 | 176 | 3.2 | 8.0 | 0.00 | 0.00 | 0.00 | 39 | 1013.2 |
| 20260507131430 | 15 | 216 | 3.2 | 4.8 | 0.00 | 0.00 | 0.00 | 40 | 1013.2 |
| 20260507125425 | 15 | 208 | 3.2 | 4.8 | 0.00 | 0.00 | 0.00 | 40 | 1012.8 |
| 20260507124426 | 14 | 234 | 1.6 | 3.2 | 0.00 | 0.00 | 0.00 | 40 | 1013.1 |
| 20260507123430 | 14 | 256 | 3.2 | 3.2 | 0.00 | 0.00 | 0.00 | 39 | 1013.3 |
| 20260507122426 | 14 | 286 | 1.6 | 3.2 | 0.00 | 0.00 | 0.00 | 40 | 1012.9 |
| 20260507121427 | 15 | 159 | 3.2 | 4.8 | 0.00 | 0.00 | 0.00 | 39 | 1012.9 |
| 20260507114424 | 14 | 179 | 0.0 | 3.2 | 0.00 | 0.00 | 0.00 | 39 | 1013.0 |
| 20260507113427 | 14 | 247 | 1.6 | 4.8 | 0.00 | 0.00 | 0.00 | 39 | 1013.1 |
| 20260507112426 | 14 | 275 | 3.2 | 4.8 | 0.00 | 0.00 | 0.00 | 40 | 1012.9 |
| 20260507111424 | 14 | 217 | 0.0 | 3.2 | 0.00 | 0.00 | 0.00 | 40 | 1012.9 |
| 20260507110424 | 15 | 248 | 1.6 | 3.2 | 0.00 | 0.00 | 0.00 | 39 | 1013.0 |
| 20260507105424 | 15 | 218 | 0.0 | 4.8 | 0.00 | 0.00 | 0.00 | 39 | 1013.1 |
| 20260507103423 | 15 | 261 | 3.2 | 3.2 | 0.00 | 0.00 | 0.00 | 38 | 1012.7 |
| 20260507102423 | 15 | 262 | 1.6 | 3.2 | 0.00 | 0.00 | 0.00 | 37 | 1013.1 |
| 20260507101424 | 15 | 215 | 3.2 | 3.2 | 0.00 | 0.00 | 0.00 | 38 | 1013.2 |
| 20260507100422 | 16 | 278 | 3.2 | 3.2 | 0.00 | 0.00 | 0.00 | 40 | 1013.1 |
| 20260507095422 | 16 | 247 | 3.2 | 3.2 | 0.00 | 0.00 | 0.00 | 39 | 1013.2 |
| 20260507094422 | 16 | 253 | 3.2 | 4.8 | 0.00 | 0.00 | 0.00 | 39 | 1013.2 |
| 20260507093423 | 16 | 279 | 1.6 | 3.2 | 0.00 | 0.00 | 0.00 | 39 | 1013.3 |
| 20260507092423 | 16 | 302 | 3.2 | 3.2 | 0.00 | 0.00 | 0.00 | 39 | 1013.3 |
| 20260507091423 | 16 | 299 | 3.2 | 4.8 | 0.00 | 0.00 | 0.00 | 39 | 1013.3 |
| 20260507085420 | 16 | 271 | 3.2 | 3.2 | 0.00 | 0.00 | 0.00 | 38 | 1013.4 |
| 20260507084421 | 16 | 289 | 3.2 | 3.2 | 0.00 | 0.00 | 0.00 | 40 | 1013.5 |
| 20260507083422 | 17 | 288 | 3.2 | 3.2 | 0.00 | 0.00 | 0.00 | 40 | 1013.6 |
| 20260507082421 | 17 | 273 | 1.6 | 3.2 | 0.00 | 0.00 | 0.00 | 36 | 1013.6 |
| 20260507081422 | 17 | 269 | 0.0 | 3.2 | 0.00 | 0.00 | 0.00 | 34 | 1013.5 |
| 20260507080420 | 17 | 231 | 1.6 | 3.2 | 0.00 | 0.00 | 0.00 | 34 | 1013.8 |
| 20260507075419 | 17 | 241 | 0.0 | 3.2 | 0.00 | 0.00 | 0.00 | 37 | 1013.9 |
| 20260507074420 | 18 | 232 | 1.6 | 3.2 | 0.00 | 0.00 | 0.00 | 36 | 1014.1 |
| 20260507073420 | 17 | 280 | 1.6 | 4.8 | 0.00 | 0.00 | 0.00 | 36 | 1013.8 |
| 20260507072421 | 17 | 266 | 1.6 | 3.2 | 0.00 | 0.00 | 0.00 | 36 | 1013.8 |
| 20260507071419 | 18 | 267 | 3.2 | 3.2 | 0.00 | 0.00 | 0.00 | 35 | 1014.0 |
| 20260507070419 | 18 | 256 | 1.6 | 3.2 | 0.00 | 0.00 | 0.00 | 35 | 1013.6 |
| 20260507065420 | 18 | 267 | 3.2 | 4.8 | 0.00 | 0.00 | 0.00 | 34 | 1013.8 |
| 20260507064420 | 19 | 286 | 3.2 | 3.2 | 0.00 | 0.00 | 0.00 | 33 | 1013.9 |
| 20260507063420 | 19 | 316 | 0.0 | 3.2 | 0.00 | 0.00 | 0.00 | 34 | 1013.6 |
| 20260507062420 | 19 | 282 | 1.6 | 3.2 | 0.00 | 0.00 | 0.00 | 34 | 1013.8 |
| 20260507061417 | 20 | 269 | 3.2 | 3.2 | 0.00 | 0.00 | 0.00 | 32 | 1013.6 |
| 20260507060420 | 20 | 244 | 1.6 | 3.2 | 0.00 | 0.00 | 0.00 | 32 | 1013.6 |
| 20260507055422 | 20 | 283 | 1.6 | 3.2 | 0.00 | 0.00 | 0.00 | 32 | 1013.9 |
| 20260507054420 | 20 | 304 | 1.6 | 3.2 | 0.00 | 0.00 | 0.00 | 31 | 1013.8 |
| 20260507053420 | 21 | 321 | 0.0 | 3.2 | 0.00 | 0.00 | 0.00 | 30 | 1013.6 |
| 20260507052420 | 21 | 306 | 1.6 | 3.2 | 0.00 | 0.00 | 0.00 | 30 | 1013.6 |
| 20260507051422 | 21 | 295 | 3.2 | 3.2 | 0.00 | 0.00 | 0.00 | 30 | 1013.8 |
| 20260507050422 | 21 | 296 | 3.2 | 3.2 | 0.00 | 0.00 | 0.00 | 32 | 1013.5 |
| 20260507045420 | 21 | 284 | 3.2 | 3.2 | 0.00 | 0.00 | 0.00 | 32 | 1013.4 |
| 20260507044419 | 21 | 298 | 1.6 | 3.2 | 0.00 | 0.00 | 0.00 | 33 | 1013.4 |
| 20260507043421 | 21 | 282 | 3.2 | 3.2 | 0.00 | 0.00 | 0.00 | 34 | 1013.4 |
| 20260507042418 | 22 | 294 | 3.2 | 3.2 | 0.00 | 0.00 | 0.00 | 32 | 1013.4 |
| 20260507041419 | 22 | 287 | 3.2 | 3.2 | 0.00 | 0.00 | 0.00 | 31 | 1013.2 |
| 20260507040419 | 23 | 285 | 3.2 | 3.2 | 0.00 | 0.00 | 0.00 | 29 | 1013.1 |
| 20260507035417 | 23 | 260 | 3.2 | 3.2 | 0.00 | 0.00 | 0.00 | 28 | 1013.1 |
| 20260507034414 | 23 | 260 | 3.2 | 3.2 | 0.00 | 0.00 | 0.00 | 31 | 1013.1 |
| 20260507033413 | 23 | 271 | 1.6 | 3.2 | 0.00 | 0.00 | 0.00 | 29 | 1012.9 |
| 20260507032415 | 23 | 275 | 1.6 | 3.2 | 0.00 | 0.00 | 0.00 | 27 | 1012.9 |
| 20260507031415 | 23 | 269 | 3.2 | 3.2 | 0.00 | 0.00 | 0.00 | 27 | 1012.7 |
| 20260507030414 | 24 | 272 | 1.6 | 4.8 | 0.00 | 0.00 | 0.00 | 27 | 1012.4 |
| 20260507025414 | 25 | 267 | 3.2 | 4.8 | 0.00 | 0.00 | 0.00 | 26 | 1012.3 |
| 20260507024414 | 25 | 276 | 3.2 | 4.8 | 0.00 | 0.00 | 0.00 | 25 | 1012.4 |
| 20260507021413 | 26 | 268 | 3.2 | 8.0 | 0.00 | 0.00 | 0.00 | 24 | 1011.8 |
| 20260507020410 | 26 | 264 | 1.6 | 9.7 | 0.00 | 0.00 | 0.00 | 24 | 1011.9 |
| 20260507015411 | 26 | 301 | 3.2 | 4.8 | 0.00 | 0.00 | 0.00 | 24 | 1011.9 |
| 20260507014409 | 26 | 286 | 0.0 | 4.8 | 0.00 | 0.00 | 0.00 | 23 | 1012.1 |
| 20260507013409 | 27 | 266 | 1.6 | 3.2 | 0.00 | 0.00 | 0.00 | 23 | 1012.0 |
| 20260507012408 | 27 | 309 | 0.0 | 3.2 | 0.00 | 0.00 | 0.00 | 22 | 1011.9 |
| 20260507011409 | 28 | 291 | 3.2 | 4.8 | 0.00 | 0.00 | 0.00 | 21 | 1012.0 |
| 20260507010408 | 28 | 317 | 1.6 | 8.0 | 0.00 | 0.00 | 0.00 | 21 | 1012.2 |
| 20260507004408 | 28 | 296 | 3.2 | 6.4 | 0.00 | 0.00 | 0.00 | 20 | 1012.0 |
| 20260507003409 | 28 | 264 | 0.0 | 9.7 | 0.00 | 0.00 | 0.00 | 20 | 1011.8 |
| 20260507002409 | 28 | 308 | 6.4 | 8.0 | 0.00 | 0.00 | 0.00 | 21 | 1011.9 |
| 20260507001408 | 29 | 307 | 3.2 | 11.3 | 0.00 | 0.00 | 0.00 | 20 | 1011.7 |
| 20260507000408 | 29 | 314 | 3.2 | 9.7 | 0.00 | 0.00 | 0.00 | 20 | 1011.9 |
| 20260506235407 | 29 | 246 | 9.7 | 11.3 | 0.00 | 0.00 | 0.00 | 20 | 1011.8 |
| 20260506234414 | 28 | 329 | 8.0 | 11.3 | 0.00 | 0.00 | 0.00 | 21 | 1011.9 |
| 20260506233407 | 28 | 281 | 3.2 | 11.3 | 0.00 | 0.00 | 0.00 | 20 | 1011.9 |
| 20260506232408 | 28 | 297 | 4.8 | 8.0 | 0.00 | 0.00 | 0.00 | 21 | 1011.9 |
| 20260506225409 | 28 | 317 | 6.4 | 11.3 | 0.00 | 0.00 | 0.00 | 20 | 1012.5 |
| 20260506224408 | 28 | 315 | 6.4 | 9.7 | 0.00 | 0.00 | 0.00 | 20 | 1012.4 |
| 20260506223408 | 28 | 251 | 8.0 | 11.3 | 0.00 | 0.00 | 0.00 | 21 | 1012.5 |
| 20260506222407 | 29 | 273 | 1.6 | 11.3 | 0.00 | 0.00 | 0.00 | 21 | 1012.7 |
| 20260506221408 | 27 | 325 | 4.8 | 11.3 | 0.00 | 0.00 | 0.00 | 22 | 1012.8 |
| 20260506220408 | 27 | 314 | 9.7 | 12.9 | 0.00 | 0.00 | 0.00 | 22 | 1012.9 |
| 20260506213406 | 28 | 164 | 3.2 | 12.9 | 0.00 | 0.00 | 0.00 | 21 | 1013.0 |
| 20260506212406 | 27 | 316 | 3.2 | 14.5 | 0.00 | 0.00 | 0.00 | 22 | 1013.3 |
| 20260506211407 | 27 | 299 | 1.6 | 11.3 | 0.00 | 0.00 | 0.00 | 22 | 1013.3 |
| 20260506205407 | 27 | 177 | 3.2 | 11.3 | 0.00 | 0.00 | 0.00 | 23 | 1013.6 |
| 20260506204406 | 27 | 359 | 3.2 | 17.7 | 0.00 | 0.00 | 0.00 | 23 | 1013.9 |
| 20260506203407 | 26 | 24 | 14.5 | 14.5 | 0.00 | 0.00 | 0.00 | 24 | 1014.0 |
| 20260506202407 | 26 | 213 | 0.0 | 14.5 | 0.00 | 0.00 | 0.00 | 24 | 1014.2 |
| 20260506201411 | 27 | 323 | 8.0 | 12.9 | 0.00 | 0.00 | 0.00 | 24 | 1014.1 |
| 20260506200408 | 26 | 313 | 9.7 | 11.3 | 0.00 | 0.00 | 0.00 | 25 | 1014.1 |
| 20260506194407 | 26 | 323 | 6.4 | 16.1 | 0.00 | 0.00 | 0.00 | 26 | 1014.3 |
| 20260506193407 | 26 | 350 | 4.8 | 14.5 | 0.00 | 0.00 | 0.00 | 25 | 1014.3 |